• Em Portugal
  • Lista de países
  • Para 7 dias
  • Temperatura da água
  • Mapas de satélite
  • Mapa do tempo
  • Widgets de tempo
  • user-avatar
    Iniciar Sessão

    Previsão horária em Mazari Sharif

    Hoje, 24 Novembro, Sexta-feira

    Tempo Temperatura Precipitação Vento Pressão Humidade
    00:00 +10°C° 0 mm 2 m/s 653 mmHg 27%
    01:00 +10°C° 0 mm 3 m/s 653 mmHg 29%
    02:00 +10°C° 0 mm 3 m/s 653 mmHg 30%
    03:00 +10°C° 0 mm 3 m/s 653 mmHg 31%
    04:00 +10°C° 0 mm 2 m/s 652 mmHg 33%
    05:00 +10°C° 0 mm 2 m/s 652 mmHg 33%
    06:00 +10°C° 0 mm 2 m/s 652 mmHg 32%
    07:00 +10°C° 0 mm 2 m/s 653 mmHg 32%
    08:00 +13°C° 0 mm 2 m/s 653 mmHg 30%
    09:00 +14°C° 0 mm 2 m/s 654 mmHg 27%
    10:00 +16°C° 0 mm 2 m/s 654 mmHg 23%
    11:00 +14°C° 0,1 mm 3 m/s 654 mmHg 28%
    12:00 +13°C° 0,1 mm 3 m/s 654 mmHg 33%
    13:00 +12°C° 0,1 mm 4 m/s 654 mmHg 38%
    14:00 +12°C° 0,1 mm 3 m/s 654 mmHg 42%
    15:00 +12°C° 0,1 mm 2 m/s 654 mmHg 45%
    16:00 +12°C° 0,1 mm 1 m/s 654 mmHg 49%
    17:00 +11°C° 0 mm 1 m/s 654 mmHg 51%
    18:00 +10°C° 0 mm 1 m/s 655 mmHg 54%
    19:00 +10°C° 0 mm 1 m/s 655 mmHg 56%
    20:00 +9°C° 0 mm 2 m/s 655 mmHg 56%
    21:00 +9°C° 0 mm 2 m/s 654 mmHg 56%
    22:00 +9°C° 0 mm 2 m/s 654 mmHg 56%
    23:00 +8°C° 0 mm 2 m/s 654 mmHg 55%

    Amanhã, 25 Novembro, Sábado

    Tempo Temperatura Precipitação Vento Pressão Humidade
    00:00 +8°C° 0 mm 2 m/s 654 mmHg 54%
    01:00 +8°C° 0 mm 3 m/s 653 mmHg 54%
    02:00 +8°C° 0 mm 3 m/s 653 mmHg 52%
    03:00 +8°C° 0 mm 3 m/s 653 mmHg 51%
    04:00 +8°C° 0 mm 3 m/s 652 mmHg 50%
    05:00 +8°C° 0 mm 3 m/s 652 mmHg 48%
    06:00 +8°C° 0 mm 3 m/s 653 mmHg 47%
    07:00 +8°C° 0 mm 3 m/s 653 mmHg 45%
    08:00 +10°C° 0,1 mm 3 m/s 653 mmHg 41%
    09:00 +12°C° 0,1 mm 3 m/s 654 mmHg 36%
    10:00 +13°C° 0,1 mm 3 m/s 654 mmHg 32%
    11:00 +13°C° 0,2 mm 3 m/s 654 mmHg 36%
    12:00 +12°C° 0,2 mm 4 m/s 654 mmHg 40%
    13:00 +12°C° 0,2 mm 4 m/s 654 mmHg 45%
    14:00 +10°C° 0,2 mm 5 m/s 655 mmHg 50%
    15:00 +9°C° 0,2 mm 5 m/s 655 mmHg 56%
    16:00 +8°C° 0,2 mm 5 m/s 656 mmHg 61%
    17:00 +8°C° 0,3 mm 4 m/s 656 mmHg 64%
    18:00 +8°C° 0,3 mm 3 m/s 657 mmHg 67%
    19:00 +8°C° 0,3 mm 2 m/s 657 mmHg 70%
    20:00 +7°C° 0,1 mm 2 m/s 658 mmHg 72%
    21:00 +7°C° 0,1 mm 2 m/s 658 mmHg 74%
    22:00 +7°C° 0,1 mm 1 m/s 658 mmHg 76%
    23:00 +7°C° 0,2 mm 1 m/s 659 mmHg 79%

    Depois de amanhã, 26 Novembro, Domingo

    Tempo Temperatura Precipitação Vento Pressão Humidade
    00:00 +7°C° 0,2 mm 1 m/s 659 mmHg 82%
    01:00 +5°C° 0,2 mm 2 m/s 659 mmHg 85%
    02:00 +5°C° 0,3 mm 2 m/s 659 mmHg 87%
    03:00 +6°C° 0,3 mm 1 m/s 659 mmHg 88%
    04:00 +5°C° 0,3 mm 1 m/s 659 mmHg 90%
    05:00 +4°C° 0,3 mm 2 m/s 660 mmHg 89%
    06:00 +4°C° 0,3 mm 2 m/s 660 mmHg 87%
    07:00 +3°C° 0,3 mm 3 m/s 660 mmHg 86%
    08:00 +3°C° 0,1 mm 3 m/s 661 mmHg 81%
    09:00 +4°C° 0,1 mm 4 m/s 661 mmHg 76%
    10:00 +4°C° 0,1 mm 4 m/s 661 mmHg 71%
    11:00 +4°C° 0 mm 4 m/s 661 mmHg 69%
    12:00 +4°C° 0 mm 4 m/s 661 mmHg 66%
    13:00 +4°C° 0 mm 4 m/s 661 mmHg 63%
    14:00 +4°C° 0 mm 4 m/s 661 mmHg 63%
    15:00 +4°C° 0 mm 3 m/s 661 mmHg 63%
    16:00 +3°C° 0 mm 3 m/s 661 mmHg 63%
    17:00 +4°C° 0 mm 2 m/s 661 mmHg 64%
    18:00 +4°C° 0 mm 2 m/s 662 mmHg 66%
    19:00 +4°C° 0 mm 1 m/s 662 mmHg 67%
    20:00 +4°C° 0 mm 1 m/s 662 mmHg 67%
    21:00 +4°C° 0 mm 1 m/s 661 mmHg 68%
    22:00 +4°C° 0 mm 1 m/s 661 mmHg 68%
    23:00 +3°C° 0 mm 1 m/s 661 mmHg 69%

    27 Novembro, Segunda-feira

    Tempo Temperatura Precipitação Vento Pressão Humidade
    00:00 +3°C° 0 mm 1 m/s 660 mmHg 69%
    01:00 +2°C° 0 mm 2 m/s 660 mmHg 70%
    02:00 +2°C° 0 mm 2 m/s 660 mmHg 71%
    03:00 +2°C° 0 mm 2 m/s 659 mmHg 72%
    04:00 +1°C° 0 mm 2 m/s 659 mmHg 74%
    05:00 +2°C° 0 mm 2 m/s 659 mmHg 73%
    06:00 +2°C° 0 mm 2 m/s 659 mmHg 73%
    07:00 +2°C° 0 mm 2 m/s 659 mmHg 73%
    08:00 +4°C° 0 mm 2 m/s 659 mmHg 65%
    09:00 +6°C° 0 mm 2 m/s 659 mmHg 57%
    10:00 +7°C° 0 mm 2 m/s 659 mmHg 49%
    11:00 +8°C° 0 mm 2 m/s 659 mmHg 45%
    12:00 +9°C° 0 mm 3 m/s 658 mmHg 41%
    13:00 +10°C° 0 mm 3 m/s 658 mmHg 38%
    14:00 +9°C° 0 mm 2 m/s 658 mmHg 40%
    15:00 +8°C° 0 mm 2 m/s 657 mmHg 42%
    16:00 +8°C° 0 mm 2 m/s 657 mmHg 45%
    17:00 +7°C° 0 mm 2 m/s 657 mmHg 46%
    18:00 +6°C° 0 mm 2 m/s 657 mmHg 47%
    19:00 +6°C° 0 mm 2 m/s 656 mmHg 49%
    20:00 +5°C° 0 mm 2 m/s 656 mmHg 47%
    21:00 +5°C° 0 mm 2 m/s 656 mmHg 46%
    22:00 +5°C° 0 mm 2 m/s 656 mmHg 44%
    23:00 +5°C° 0 mm 2 m/s 656 mmHg 44%

    28 Novembro, Terça-feira

    Tempo Temperatura Precipitação Vento Pressão Humidade
    00:00 +5°C° 0 mm 2 m/s 655 mmHg 44%
    01:00 +5°C° 0 mm 2 m/s 655 mmHg 44%
    02:00 +5°C° 0 mm 2 m/s 655 mmHg 44%
    03:00 +5°C° 0 mm 2 m/s 655 mmHg 44%
    04:00 +5°C° 0 mm 2 m/s 655 mmHg 45%
    05:00 +5°C° 0 mm 2 m/s 655 mmHg 43%
    06:00 +6°C° 0 mm 2 m/s 655 mmHg 42%
    07:00 +6°C° 0 mm 2 m/s 655 mmHg 41%
    08:00 +7°C° 0 mm 2 m/s 656 mmHg 37%
    09:00 +9°C° 0 mm 2 m/s 656 mmHg 33%
    10:00 +12°C° 0 mm 1 m/s 657 mmHg 28%
    11:00 +12°C° 0 mm 2 m/s 657 mmHg 28%
    12:00 +12°C° 0 mm 2 m/s 656 mmHg 27%
    13:00 +13°C° 0 mm 2 m/s 656 mmHg 27%
    14:00 +12°C° 0 mm 2 m/s 656 mmHg 30%
    15:00 +11°C° 0 mm 1 m/s 656 mmHg 33%
    16:00 +11°C° 0 mm 1 m/s 656 mmHg 36%
    17:00 +10°C° 0 mm 1 m/s 656 mmHg 37%
    18:00 +10°C° 0 mm 1 m/s 656 mmHg 39%
    19:00 +9°C° 0 mm 1 m/s 657 mmHg 40%
    20:00 +9°C° 0 mm 1 m/s 657 mmHg 41%
    21:00 +8°C° 0 mm 1 m/s 657 mmHg 43%
    22:00 +8°C° 0 mm 1 m/s 657 mmHg 44%
    23:00 +8°C° 0 mm 1 m/s 657 mmHg 45%

    29 Novembro, Quarta-feira

    Tempo Temperatura Precipitação Vento Pressão Humidade
    00:00 +7°C° 0 mm 1 m/s 656 mmHg 45%
    01:00 +7°C° 0 mm 1 m/s 656 mmHg 46%
    02:00 +7°C° 0 mm 1 m/s 656 mmHg 47%
    03:00 +6°C° 0 mm 1 m/s 656 mmHg 48%
    04:00 +6°C° 0 mm 1 m/s 656 mmHg 49%
    05:00 +6°C° 0 mm 1 m/s 657 mmHg 49%
    06:00 +6°C° 0 mm 1 m/s 657 mmHg 49%
    07:00 +5°C° 0 mm 0 m/s 657 mmHg 49%
    08:00 +7°C° 0 mm 1 m/s 658 mmHg 44%
    09:00 +9°C° 0 mm 1 m/s 659 mmHg 39%
    10:00 +11°C° 0 mm 1 m/s 659 mmHg 34%
    11:00 +11°C° 0 mm 1 m/s 659 mmHg 32%
    12:00 +10°C° 0 mm 2 m/s 659 mmHg 31%
    13:00 +12°C° 0 mm 2 m/s 658 mmHg 30%
    14:00 +10°C° 0 mm 2 m/s 658 mmHg 33%
    15:00 +10°C° 0 mm 1 m/s 658 mmHg 35%
    16:00 +10°C° 0 mm 1 m/s 658 mmHg 37%
    17:00 +9°C° 0 mm 1 m/s 658 mmHg 40%
    18:00 +8°C° 0 mm 1 m/s 658 mmHg 42%
    19:00 +6°C° 0 mm 0 m/s 658 mmHg 45%
    20:00 +6°C° 0 mm 0 m/s 658 mmHg 45%
    21:00 +5°C° 0 mm 0 m/s 658 mmHg 46%
    22:00 +5°C° 0 mm 0 m/s 658 mmHg 46%
    23:00 +6°C° 0 mm 1 m/s 658 mmHg 46%
    Mostrar mais